Powrót do katalogu

TITAN 3C TRANSTAGE DEB

AktywnyHEO
NORAD 26048·DEBRIS·🇺🇸 United States

Wystrzelony Dec 21, 1965 z Cape Canaveral Space Force Station

Loading…

Następne Przeloty (najbliższe 24 godziny)

TLE

ŚwieżeSource: Space-Track

Epoka: Sep 13, 2026, 10:40 UTC

1 26048U 65108AG  26256.44465676  .00000805  00000-0  43719-3 0  9993
2 26048  26.5900  17.9955 6236983 279.3227  19.5646  3.64424916336382

Śledź TITAN 3C TRANSTAGE DEB w czasie rzeczywistym z AllMySat

Download on the App Store